Regional Weather Roundup
Issued by NWS

Home | Current Version | Previous Version | Graphics & Text | Print | Product List | Glossary On
Versions: 1 2 3 4 5 6 7 8 9 10 11 12 13 14 15 16 17 18 19 20 21 22 23 24 25 26 27 28 29 30 31 32 33 34 35 36 37 38 39 40 41 42 43 44 45 46 47 48 49 50
000
ASUS43 KFSD 230810
RWRSD

WEATHER ROUNDUP FOR SOUTH DAKOTA
NATIONAL WEATHER SERVICE SIOUX FALLS SD
300 AM CDT FRI JUN 23 2017

NOTE: "FAIR" INDICATES FEW OR NO CLOUDS BELOW 12,000 FEET WITH NO
SIGNIFICANT WEATHER AND/OR OBSTRUCTIONS TO VISIBILITY.


SDZ001>005-009-010-012>017-230900-
NORTHWEST AND NORTH CENTRAL SOUTH DAKOTA

CITY           SKY/WX    TMP DP  RH WIND       PRES   REMARKS
BUFFALO          N/A     54  43  66 NW25      30.07S
FAITH            N/A     52  45  77 NW20G28   30.06S
MOBRIDGE       MOCLDY    59  47  64 NW17G26   29.93S
$$

SDZ012>016-024>037-041>051-057-063-072>074-230900-
SOUTHWEST AND SOUTH CENTRAL SOUTH DAKOTA

CITY           SKY/WX    TMP DP  RH WIND       PRES   REMARKS
RAPID CTY ARPT MOCLDY    55  37  50 N16G26    30.15R
PIERRE         PTCLDY    59  43  55 NW20      29.97R
CUSTER         CLOUDY    50  29  44 NW12G22   30.19S
ELLSWORTH AFB  CLOUDY    55  38  53 NW18      30.13R
PHILIP         CLOUDY    59  42  53 NW26G32   30.07R
PINE RIDGE     CLOUDY    59  37  44 N12       30.14R
SPEARFISH      FAIR      52  39  62 W21G28    30.19S
WINNER         FAIR      57  40  52 NW5       30.00R
$$

SDZ004>011-016>023-039-040-230900-
NORTHEAST SOUTH DAKOTA

CITY           SKY/WX    TMP DP  RH WIND       PRES   REMARKS
ABERDEEN       CLEAR     57  44  62 W9        29.88S
WATERTOWN      CLEAR     59  45  59 NW16      29.84R
BROOKINGS      CLEAR     58  50  75 W10       29.85S
SISSETON         N/A     60  46  59 NW15      29.80R
$$

SDZ017-020-022-023-036>040-048>070-230900-
SOUTHEAST SOUTH DAKOTA

CITY           SKY/WX    TMP DP  RH WIND       PRES   REMARKS
SIOUX FALLS    CLEAR     57  51  80 NW7       29.84F
HURON          CLEAR     54  47  77 NW9       29.90R
CHAMBERLAIN    CLEAR     63  42  47 NW17G25   29.96R
MITCHELL       CLEAR     58  47  66 NW12      29.90R
YANKTON        CLEAR     59  50  72 SW8       29.87S
$$

ABBREVIATIONS USED IN REMARKS
   TC - TEMPERATURE IN CELSIUS
  WCI - WIND CHILL INDEX
   HX - HEAT INDEX
  VSB - VISIBILITY





USA.gov is the U.S. government's official web portal to all federal, state and local government web resources and services.